Stations météo

Publicité
Writtle, Grande-Bretagne (99127): Température de l'air & dewpoint: 04.08.2020 00:00:00 - 10.08.2020 00:00:00 (BST)Writtle, Grande-Bretagne (99127): Température de l'air -20cm: 04.08.2020 00:00:00 - 10.08.2020 00:00:00 (BST)Writtle, Grande-Bretagne (99127): Quantités de précipitations: 04.08.2020 00:00:00 - 10.08.2020 00:00:00 (BST)
Date & Time tt [°C] td [°C] tt -20cm [°C] rr [mm]
10.08.2020 00:00:00 21,7 16,8 - 0,0
09.08.2020 23:00:00 23,2 16,7 - 0,0
09.08.2020 22:00:00 24,7 15,9 - 0,0
09.08.2020 21:00:00 25,5 15,5 - 0,0
09.08.2020 20:00:00 27,2 15,5 - 0,0
09.08.2020 19:00:00 28,6 15,7 - 0,0
09.08.2020 18:00:00 29,5 15,8 - 0,0
09.08.2020 17:00:00 30,3 15,4 - 0,0
09.08.2020 16:00:00 30,7 14,8 - 0,0
09.08.2020 15:00:00 32,2 16,7 - 0,0
09.08.2020 14:00:00 30,8 16,8 - 0,0
09.08.2020 13:00:00 30,5 17,7 - 0,0
09.08.2020 12:00:00 27,6 17,2 - 0,0
09.08.2020 11:00:00 24,9 16,6 - 0,0
09.08.2020 10:00:00 22,5 16,5 18,0 0,0
09.08.2020 09:00:00 19,7 15,7 - 0,0
09.08.2020 08:00:00 18,0 15,4 - 0,0
09.08.2020 07:00:00 17,2 15,2 - 0,0
09.08.2020 06:00:00 16,7 15,0 - 0,0
09.08.2020 05:00:00 16,8 15,1 - 0,0
09.08.2020 04:00:00 16,7 15,1 - 0,0
09.08.2020 03:00:00 16,8 15,0 - 0,0
09.08.2020 02:00:00 17,3 15,1 - 0,0
09.08.2020 01:00:00 17,9 15,0 - 0,0
09.08.2020 00:00:00 18,8 15,1 - 0,0
08.08.2020 23:00:00 20,6 15,1 - 0,0
08.08.2020 22:00:00 22,4 15,0 - 0,0
08.08.2020 21:00:00 24,1 15,2 - 0,0
08.08.2020 20:00:00 26,3 14,7 - 0,0
08.08.2020 19:00:00 27,7 14,4 - 0,0
08.08.2020 18:00:00 28,5 13,6 - 0,0
08.08.2020 17:00:00 30,8 14,4 - 0,0
08.08.2020 16:00:00 32,6 15,3 - 0,0
08.08.2020 15:00:00 33,2 14,9 - 0,0
08.08.2020 14:00:00 30,8 14,2 - 0,0
08.08.2020 13:00:00 29,8 14,5 - 0,0
08.08.2020 12:00:00 29,6 14,2 - 0,0
08.08.2020 11:00:00 28,5 15,3 - 0,0
08.08.2020 10:00:00 23,6 16,7 17,9 0,0
08.08.2020 09:00:00 21,9 15,7 - 0,0
08.08.2020 08:00:00 21,1 15,6 - 0,0
08.08.2020 07:00:00 19,5 14,3 - 0,0
08.08.2020 06:00:00 18,2 14,4 - 0,0
08.08.2020 05:00:00 18,0 14,6 - 0,0
08.08.2020 04:00:00 18,5 14,5 - 0,0
08.08.2020 03:00:00 19,4 14,4 - 0,0
08.08.2020 02:00:00 21,5 15,3 - 0,0
08.08.2020 01:00:00 19,5 14,5 - 0,0
08.08.2020 00:00:00 20,0 13,9 - 0,0
07.08.2020 23:00:00 20,4 14,4 - 0,0
07.08.2020 22:00:00 22,5 13,6 - 0,0
07.08.2020 21:00:00 26,5 12,9 - 0,0
07.08.2020 20:00:00 29,6 9,7 - 0,0
07.08.2020 19:00:00 31,4 9,0 - 0,0
07.08.2020 18:00:00 33,1 8,4 - 0,0
07.08.2020 17:00:00 34,3 9,2 - 0,0
07.08.2020 16:00:00 34,2 10,5 - 0,0
07.08.2020 15:00:00 33,6 11,8 - 0,0
07.08.2020 14:00:00 33,3 12,3 - 0,0
07.08.2020 13:00:00 31,7 13,6 - 0,0
07.08.2020 12:00:00 30,8 13,1 - 0,0
07.08.2020 11:00:00 28,6 15,5 - 0,0
07.08.2020 10:00:00 25,9 15,9 17,2 0,0
07.08.2020 09:00:00 22,6 16,3 - 0,0
07.08.2020 08:00:00 18,3 16,4 - 0,0
07.08.2020 07:00:00 14,8 14,5 - 0,0
07.08.2020 06:00:00 12,1 11,7 - 0,0
07.08.2020 05:00:00 12,3 11,8 - 0,0
07.08.2020 04:00:00 13,1 12,5 - 0,0
07.08.2020 03:00:00 14,6 13,9 - 0,0
07.08.2020 02:00:00 15,1 13,7 - 0,0
07.08.2020 01:00:00 16,3 14,4 - 0,0
07.08.2020 00:00:00 18,3 15,0 - 0,0
06.08.2020 23:00:00 19,5 15,4 - 0,0
06.08.2020 22:00:00 20,7 14,3 - 0,0
06.08.2020 21:00:00 22,3 14,5 - 0,0
06.08.2020 20:00:00 24,7 14,3 - 0,0
06.08.2020 19:00:00 26,9 15,2 - 0,0
06.08.2020 18:00:00 27,6 15,6 - 0,0
06.08.2020 17:00:00 27,8 16,2 - 0,0
06.08.2020 16:00:00 27,2 16,2 - 0,0
06.08.2020 15:00:00 25,9 16,5 - 0,0
06.08.2020 14:00:00 24,7 17,2 - 0,0
06.08.2020 13:00:00 23,5 16,6 - 0,0
06.08.2020 12:00:00 23,3 16,8 - 0,0
06.08.2020 11:00:00 21,8 16,9 - 0,0
06.08.2020 10:00:00 21,0 17,0 17,2 0,0
06.08.2020 09:00:00 20,6 16,6 - 0,0
06.08.2020 08:00:00 19,9 16,6 - 0,0
06.08.2020 07:00:00 18,9 16,1 - 0,0
06.08.2020 06:00:00 18,3 15,8 - 0,0
06.08.2020 05:00:00 18,0 15,5 - 0,0
06.08.2020 04:00:00 18,0 15,5 - 0,0
06.08.2020 03:00:00 18,3 15,2 - 0,0
06.08.2020 02:00:00 18,9 14,8 - 0,0
06.08.2020 01:00:00 19,4 14,7 - 0,0
06.08.2020 00:00:00 17,9 13,2 - 0,0
05.08.2020 23:00:00 18,9 13,0 - 0,0
05.08.2020 22:00:00 20,6 12,9 - 0,0
05.08.2020 21:00:00 21,4 11,8 - 0,0
05.08.2020 20:00:00 22,0 9,6 - 0,0
05.08.2020 19:00:00 23,4 8,5 - 0,0
05.08.2020 18:00:00 23,9 9,4 - 0,0
05.08.2020 17:00:00 24,6 6,1 - 0,0
05.08.2020 16:00:00 25,8 2,3 - 0,0
05.08.2020 15:00:00 26,0 5,5 - 0,0
05.08.2020 14:00:00 26,2 7,1 - 0,0
05.08.2020 13:00:00 26,2 9,7 - 0,0
05.08.2020 12:00:00 24,8 8,8 - 0,0
05.08.2020 11:00:00 22,9 7,9 - 0,0
05.08.2020 10:00:00 20,2 10,2 16,7 0,0
05.08.2020 09:00:00 18,8 9,3 - 0,0
05.08.2020 08:00:00 18,1 11,6 - 0,0
05.08.2020 07:00:00 17,0 12,1 - 0,0
05.08.2020 06:00:00 15,5 11,8 - 0,0
05.08.2020 05:00:00 15,1 11,2 - 0,0
05.08.2020 04:00:00 15,0 10,6 - 0,0
05.08.2020 03:00:00 15,8 10,4 - 0,0
05.08.2020 02:00:00 15,5 9,7 - 0,0
05.08.2020 01:00:00 16,0 9,2 - 0,0
05.08.2020 00:00:00 16,5 10,0 - 0,0
04.08.2020 23:00:00 17,0 10,1 - 0,0
04.08.2020 22:00:00 18,3 9,7 - 0,0
04.08.2020 21:00:00 19,0 9,0 - 0,0
04.08.2020 20:00:00 20,5 8,4 - 0,0
04.08.2020 19:00:00 21,5 6,7 - 0,0
04.08.2020 18:00:00 23,1 7,4 - 0,0
04.08.2020 17:00:00 22,9 5,4 - 0,0
04.08.2020 16:00:00 23,8 5,5 - 0,0
04.08.2020 15:00:00 23,1 7,0 - 0,0
04.08.2020 14:00:00 22,2 6,8 - 0,0
04.08.2020 13:00:00 22,3 9,2 - 0,0
04.08.2020 12:00:00 23,0 9,2 - 0,0
04.08.2020 11:00:00 20,3 9,4 - 0,0
04.08.2020 10:00:00 20,2 9,9 16,5 0,0
04.08.2020 09:00:00 18,0 9,6 - 0,0
04.08.2020 08:00:00 15,0 12,6 - 0,0
04.08.2020 07:00:00 9,8 9,6 - 0,0
04.08.2020 06:00:00 6,1 5,7 - 0,0
04.08.2020 05:00:00 6,8 6,5 - 0,0
04.08.2020 04:00:00 7,1 6,6 - 0,0
04.08.2020 03:00:00 8,0 7,4 - 0,0
04.08.2020 02:00:00 9,0 8,4 - 0,0
04.08.2020 01:00:00 9,8 8,7 - 0,0
04.08.2020 00:00:00 11,3 9,5 - 0,0

tt = Température de l'air
td = dewpoint
tt -20cm = Température de l'air -20cm
rr = Quantités de précipitations

stations d'obs. à proximité